Regional Weather Roundup
Issued by NWS Green Bay, WI

Home | Current Version | Previous Version | Graphics & Text | Print | Product List | Glossary Off
Versions: 1 2 3 4 5 6 7 8 9 10 11 12 13 14 15 16 17 18 19 20 21 22 23 24 25 26 27 28 29 30 31 32 33 34 35 36 37 38 39 40 41 42 43 44 45 46 47 48 49 50

000
ASUS43 KGRB 261110
RWRGRB

NORTH-CENTRAL AND NORTHEAST WISCONSIN REGIONAL WEATHER ROUNDUP
NATIONAL WEATHER SERVICE GREEN BAY WI
500 AM CST WED NOV 26 2014

WIZ005-009-010>012-018-019-261200-
NORTH CENTRAL WISCONSIN

CITY           SKY/WX    TMP DP  RH WIND       PRES   REMARKS
IRONWOOD       CLOUDY    12  10  92 CALM      30.06S
MANITOWISH WTR CLOUDY    14  13  95 CALM      30.06S
ARBOR VITAE    CLOUDY    17  14  90 CALM      30.06S
EAGLE RIVER    CLOUDY    11   8  85 CALM      30.06F
LAND O LAKES   CLOUDY     7   4  88 CALM      30.07F
RHINELANDER    CLOUDY    11   9  92 CALM      30.07S
PHILLIPS       CLOUDY    17  14  88 CALM      30.06S
ANTIGO         CLOUDY    14  12  93 CALM      30.08S
TOMAHAWK       CLOUDY    15  13  91 CALM      30.08S
MERRILL        CLOUDY    15  13  93 CALM      30.07F
$$

WIZ013-073-261200-
NORTHEAST WISCONSIN

CITY           SKY/WX    TMP DP  RH WIND       PRES   REMARKS
IRON MOUNTAIN  PTCLDY    -1  -6  79 CALM      30.12S
MARINETTE      PTCLDY     9   5  85 CALM      30.15S
OCONTO         MOCLDY     6   4  94 CALM      30.16S
$$

WIZ017-030-035>037-045-261200-
CENTRAL WISCONSIN

CITY           SKY/WX    TMP DP  RH WIND       PRES   REMARKS
MEDFORD        CLOUDY    17  14  88 CALM      30.06S
WAUSAU         CLOUDY    16  13  88 E8        30.08F WCI   5
MOSINEE        NOT AVBL
MARSHFIELD     CLOUDY    18  14  84 E5        30.08R
WISC RAPIDS    CLOUDY    15  11  83 E7        30.11F WCI   5
STEVENS POINT  CLOUDY    12  10  92 CALM      30.11S
WAUPACA        PTCLDY    11   7  85 CALM      30.15F
SHAWANO        CLOUDY    17  14  89 CALM      30.16R
CLINTONVILLE   CLOUDY    14  12  92 CALM      30.15S
$$

WIZ038-039-048-051-261200-
FOX VALLEY

CITY           SKY/WX    TMP DP  RH WIND       PRES   REMARKS
NWS GREEN BAY  PTCLDY    14  11  87 SE6       30.14F WCI   5
APPLETON       NOT AVBL
OSHKOSH        CLOUDY    15  12  88 CALM      30.14S
FOND DU LAC    PTCLDY    12   8  84 CALM      30.14F
$$

WIZ022-050-052-261200-
EAST CENTRAL WISCONSIN

CITY           SKY/WX    TMP DP  RH WIND       PRES   REMARKS
STURGEON BAY   PTCLDY    19  12  73 SW5       30.15F
MANITOWOC      MOCLDY    17  15  92 CALM      30.16F
SHEBOYGAN      CLOUDY    20  15  81 N3        30.15F
$$

LMZ563-521-522-541>543-261200-
LAKESHORE

STATION/POSITION TIME  TEMP    WIND        PRES    VSBY  WAVE
                       AIR SEA DIR/SP/G                  HT/PER
                 (UTC) (F)     (DEG/KT/KT) (MB)    (MI)  (FT/S)
SHEBOYGAN LKSHOR 1100   21 36  310/  6/  7 1022.3F
KEWAUNEE LKSHORE 1100   18     300/  2/  3 1020.5F
ALGOMA MARINA    1000             CALM       N/A
NORTHPORT PIER   1100   22     280/  4/  5 1021.0F
N MID LAKE BUOY  1100   29 42  230/  4/  8 1021.7F         1/ 3
CHAMBERS ISLAND  1100   22        CALM     1021.3S
MENOMINEE LKSHOR 1100   17     250/  4/  5 1021.8F
$$


USA.gov is the U.S. government's official web portal to all federal, state and local government web resources and services.